Regional Weather Roundup
Issued by NWS Newport/Morehead, NC

Current Version | Previous Version | Text Only | Print | Product List | Glossary Off
Versions: 1 2 3 4 5 6 7 8 9 10 11 12 13 14 15 16 17 18 19 20 21 22 23 24 25 26 27 28 29 30 31 32 33 34 35 36 37 38 39 40 41 42 43 44 45 46 47 48 49 50

000
ASUS42 KMHX 060425
RWRMHX
WEATHER ROUNDUP FOR EASTERN NORTH CAROLINA
NATIONAL WEATHER SERVICE NEWPORT/MOREHEAD CITY NC
1200 AM EDT WED MAY 06 2015

NOTE: "FAIR" INDICATES FEW OR NO CLOUDS BELOW 12,000 FEET
WITH NO SIGNIFICANT WEATHER AND/OR OBSTRUCTIONS TO VISIBILITY

NCZ015>017-031-032-045>047-102-103-060500-
NORTH COAST

CITY           SKY/WX    TMP DP  RH WIND       PRES   REMARKS
EDENTON        PTCLDY    62  55  80 S5        30.30S
ELIZABETH CITY CLEAR     62  54  74 S3        30.31S
KITTY HAWK     PTCLDY    64  59  82 CALM      30.30F
MANTEO         PTCLDY    64  60  88 SW3       30.31F

$$

NCZ045>047-081-094-103-104-060500-
CENTRAL COAST

CITY           SKY/WX    TMP DP  RH WIND       PRES   REMARKS
FRISCO         MOCLDY    65  57  75 S6        30.31S
SWANQUARTER      N/A     64 N/A N/A S3        30.27S

$$

NCZ095-097-098-100-101-060500-
SOUTHERN COAST

CITY           SKY/WX    TMP DP  RH WIND       PRES   REMARKS
BEAUFORT       MOCLDY    60  57  89 CALM      30.30S
CEDAR ISLAND     N/A     63 N/A N/A SW1       30.33S
JACKSONVILLE   PTCLDY    57  55  93 CALM      30.29S
PINEY ISLAND   MOCLDY   N/A N/A N/A CALM      30.30F
WILMINGTON     MOCLDY    58  55  90 N3        30.28S


$$

NCZ011>013-027>030-043-044-078>080-089-090>093-098-060500-
COASTAL PLAIN

CITY           SKY/WX    TMP DP  RH WIND       PRES   REMARKS
AHOSKIE        PTCLDY    57  52  83 CALM      30.30S
CLINTON        PTCLDY    62  56  80 CALM      30.29S
ELIZABETHTOWN  PTCLDY    60  54  81 CALM      30.28F
GOLDSBORO      PTCLDY    62  53  72 CALM      30.27S
GREENVILLE     CLEAR     63  54  72 CALM      30.30S
HAVELOCK       MOCLDY    58  53  84 CALM      30.31F
KENANSVILLE    PTCLDY    54  52  92 CALM      30.30F
KINSTON        PTCLDY    60  54  78 CALM      30.30S
NEW BERN       PTCLDY    56  51  84 CALM      30.31F
RICHLANDS      PTCLDY    54  48  82 CALM      30.30F
ROCKY MOUNT    PTCLDY    61  52  72 CALM      30.29S
WASHINGTON     PTCLDY    58  53  81 CALM      30.30S
WHITEVILLE     MOCLDY    58  55  89 CALM      30.27F

$$

AMZ130-135-150-152-154-156-158-170-250-252-270-ANZ085-086-088-633-658-670-060500-
MARINE OBSERVATIONS

STATION/POSITION TIME  TEMP    WIND        PRES    WAVE   SWELL
                       AIR SEA DIR/SP/G            HT/PER HT/PER
                 (UTC) (F)     (DEG/KT/KT) (MB)    (FT/S) (FT/S)
CHESAPEAKE LIGHT 0400   66     210/ 20/ 21 1025.7
64 E VA BEACH    0350   61 60  210/  8/ 10 1025.9    2/11   2/11
DUCK             0300   67 52  190/  9/ 11 1025.5
2 E DUCK         0311      54                N/A     2/11
OREGON INLET     0300   68 72  180/  7/ 10 1026.6
13E OREGON INLT  0400      59                N/A     2/11   2/11
HATTERAS CG      0300   69 69  160/  5/  7 1026.1
DIAMOND BUOY     0350   71 75  170/ 10/ 12 1026.5    3/11   3/11
CAPE LOOKOUT     0400   68      90/  3/  3 1025.7
BEAUFORT LAB     0300   67 67  150/  2/  3 1025.2
27 SE WRIGHTSVLE 0400   68 71  140/  6/  8   N/A
5 SE WRIGHTSVLE  0308   69 69  130/  2/  4 1025.3
225 S CAPE HAT   0350   70 70  110/ 17/ 21 1024.1    6/ 7   2/ 9
41 SE CHARLESTON 0350   73 73   80/ 12/ 16 1023.1    5/ 7   3/ 7

$$



USA.gov is the U.S. government's official web portal to all federal, state and local government web resources and services.